FW4701 Weather Reports


Display with metric or nautical units.
time (UTC)temp
F
wind
direction
speed
MPH
gust
MPH
rain 1hr
in
rain 24hr
in
rain mn
in
humidity
%
barometer
mb
20260906141007 72 91 3.0 9.0 0.00 0.00 0.00 86 1019.8
20260906140509 72 88 2.0 9.0 0.00 0.00 0.00 85 1019.7
20260906140023 82 125 1.0 5.0 0.00 0.00 0.00 55 1013.8
20260906140019 72 9 2.0 11.0 0.00 0.00 0.00 85 1019.7
20260906135508 72 76 1.0 11.0 0.00 0.00 0.00 85 1019.7
20260906135012 72 19 2.0 11.0 0.00 0.00 0.00 87 1019.8
20260906134537 81 110 3.0 6.0 0.00 0.00 0.00 56 1013.9
20260906134526 71 34 3.0 9.0 0.00 0.00 0.00 89 1019.8
20260906134013 71 103 4.0 10.0 0.00 0.00 0.00 89 1019.8
20260906133515 71 93 2.0 10.0 0.00 0.00 0.00 89 1019.8
20260906133030 71 82 1.0 6.0 0.00 0.00 0.00 90 1019.8
20260906133021 79 123 1.0 5.0 0.00 0.00 0.00 57 1013.8
20260906132515 70 5 2.0 6.0 0.00 0.00 0.00 90 1019.9
20260906132015 70 49 1.0 8.0 0.00 0.00 0.00 90 1019.8
20260906131517 79 120 0.0 4.0 0.00 0.00 0.00 56 1013.7
20260906131508 70 32 1.0 8.0 0.00 0.00 0.00 91 1019.8
20260906131006 70 94 1.0 7.0 0.00 0.00 0.00 91 1019.8
20260906130505 70 31 1.0 8.0 0.00 0.00 0.00 92 1019.8
20260906130014 69 55 2.0 8.0 0.00 0.00 0.00 93 1020.0
20260906125511 69 63 0.0 8.0 0.00 0.00 0.00 93 1020.0
20260906125009 69 49 2.0 5.0 0.00 0.00 0.00 94 1019.9
20260906124530 69 346 2.0 5.0 0.00 0.00 0.00 94 1019.7
20260906124510 76 113 0.0 2.0 0.00 0.00 0.00 57 1013.5
20260906124010 69 28 1.0 4.0 0.00 0.00 0.00 94 1019.6
20260906123511 68 34 1.0 4.0 0.00 0.00 0.00 94 1019.5
20260906123035 68 34 1.0 3.0 0.00 0.00 0.00 94 1019.4
20260906123006 0 0.0 0.0 0.00 0.00 0.00 1013.1
20260906122516 68 19 0.0 3.0 0.00 0.00 0.00 94 1019.4
20260906122014 68 33 1.0 4.0 0.00 0.00 0.00 94 1019.4
20260906121604 0 0.0 0.0 0.00 0.00 0.00 1012.9
20260906121533 68 17 1.0 4.0 0.00 0.00 0.00 94 1019.3
20260906121015 68 352 1.0 3.0 0.00 0.00 0.00 94 1019.3
20260906120520 68 19 1.0 3.0 0.00 0.00 0.00 94 1019.1
20260906120055 0 0.0 0.0 0.00 0.00 0.00 1012.9
20260906120012 68 28 1.0 3.0 0.00 0.00 0.00 94 1019.1
20260906115506 68 26 1.0 3.0 0.00 0.00 0.00 94 1018.9
20260906115007 68 35 0.0 3.0 0.00 0.00 0.00 93 1018.9
20260906114606 0 0.0 0.0 0.00 0.00 0.00 1012.6
20260906114519 68 24 0.0 3.0 0.00 0.00 0.00 93 1018.8
20260906114007 68 26 1.0 3.0 0.00 0.00 0.00 93 1018.9
20260906113512 68 19 1.0 4.0 0.00 0.00 0.00 93 1018.7
20260906113052 0 0.0 0.0 0.00 0.00 0.00 1012.7
20260906113024 68 26 2.0 4.0 0.00 0.00 0.00 93 1018.6
20260906112511 68 19 0.0 4.0 0.00 0.00 0.00 93 1018.4
20260906112014 68 24 1.0 5.0 0.00 0.00 0.00 93 1018.4
20260906111544 0 0.0 0.0 0.00 0.00 0.00 1012.5
20260906111527 68 17 1.0 5.0 0.00 0.00 0.00 92 1018.3
20260906111014 68 22 0.0 4.0 0.00 0.00 0.00 92 1018.3
20260906110517 68 17 0.0 4.0 0.00 0.00 0.00 92 1018.3
20260906110039 0 0.0 0.0 0.00 0.00 0.00 1012.4
20260906110030 69 9 1.0 4.0 0.00 0.00 0.00 92 1018.2
20260906105517 69 37 1.0 4.0 0.00 0.00 0.00 92 1018.2
20260906105008 69 29 1.0 5.0 0.00 0.00 0.00 92 1018.1
20260906104539 0 288 0.0 0.0 0.00 0.00 0.00 1012.4
20260906104516 69 38 1.0 5.0 0.00 0.00 0.00 92 1018.1
20260906104007 69 23 1.0 4.0 0.00 0.00 0.00 92 1018.1
20260906103508 69 22 0.0 6.0 0.00 0.00 0.00 91 1018.0
20260906103039 69 82 1.0 6.0 0.00 0.00 0.00 91 1018.0
20260906103034 74 285 0.0 1.0 0.00 0.00 0.00 63 1012.2
20260906102516 69 100 0.0 3.0 0.00 0.00 0.00 91 1018.0
20260906102015 69 5 1.0 3.0 0.00 0.00 0.00 91 1018.0
20260906101531 74 285 0.0 0.0 0.00 0.00 0.00 63 1012.0
20260906101527 70 352 0.0 4.0 0.00 0.00 0.00 91 1018.0
20260906101016 70 54 0.0 5.0 0.00 0.00 0.00 91 1018.0
20260906100514 70 34 1.0 5.0 0.00 0.00 0.00 91 1018.0
20260906100034 70 23 2.0 4.0 0.00 0.00 0.00 91 1018.0
20260906100026 75 119 0.0 1.0 0.00 0.00 0.00 62 1012.0
20260906095515 70 22 1.0 6.0 0.00 0.00 0.00 91 1017.8
20260906095017 70 34 0.0 6.0 0.00 0.00 0.00 91 1017.8
20260906094532 70 9 1.0 6.0 0.00 0.00 0.00 91 1017.8
20260906094523 75 119 0.0 1.0 0.00 0.00 0.00 63 1012.0
20260906094015 70 42 0.0 3.0 0.00 0.00 0.00 91 1017.8
20260906093508 70 13 0.0 3.0 0.00 0.00 0.00 91 1017.7
20260906093021 74 119 0.0 0.0 0.00 0.00 0.00 62 1011.8
20260906093019 70 35 0.0 4.0 0.00 0.00 0.00 91 1017.7
20260906092511 70 18 1.0 4.0 0.00 0.00 0.00 91 1017.8
20260906092010 70 86 1.0 4.0 0.00 0.00 0.00 91 1017.8
20260906091523 70 21 1.0 4.0 0.00 0.00 0.00 91 1017.7
20260906091517 75 119 0.0 0.0 0.00 0.00 0.00 61 1011.7
20260906091014 70 5 1.0 4.0 0.00 0.00 0.00 91 1017.6
20260906090513 70 5 0.0 3.0 0.00 0.00 0.00 91 1017.6
20260906090030 70 45 0.0 3.0 0.00 0.00 0.00 91 1017.6
20260906090012 76 119 0.0 0.0 0.00 0.00 0.00 60 1011.8
20260906085515 71 342 1.0 3.0 0.00 0.00 0.00 90 1017.6
20260906085015 71 49 0.0 3.0 0.00 0.00 0.00 90 1017.6
20260906084532 71 68 0.0 5.0 0.00 0.00 0.00 90 1017.7
20260906084510 76 119 0.0 0.0 0.00 0.00 0.00 60 1011.8
20260906084020 71 24 2.0 5.0 0.00 0.00 0.00 90 1017.6
20260906083514 71 21 2.0 5.0 0.00 0.00 0.00 90 1017.6
20260906083032 71 30 1.0 5.0 0.00 0.00 0.00 90 1017.6
20260906083005 77 119 0.0 0.0 0.00 0.00 0.00 59 1011.7
20260906082507 71 35 2.0 5.0 0.00 0.00 0.00 90 1017.6
20260906082008 71 360 1.0 5.0 0.00 0.00 0.00 90 1017.7
20260906081601 78 119 0.0 0.0 0.00 0.00 0.00 58 1011.7
20260906081525 72 11 1.0 7.0 0.00 0.00 0.00 90 1017.7
20260906081011 72 347 2.0 7.0 0.00 0.00 0.00 89 1017.7
20260906080514 72 26 1.0 9.0 0.00 0.00 0.00 89 1017.7
20260906080056 78 119 0.0 3.0 0.00 0.00 0.00 58 1012.0
20260906080030 72 27 2.0 9.0 0.00 0.00 0.00 89 1017.8
20260906075514 72 43 1.0 7.0 0.00 0.00 0.00 89 1017.8
20260906075015 72 17 2.0 5.0 0.00 0.00 0.00 89 1017.8
20260906074554 78 115 0.0 3.0 0.00 0.00 0.00 58 1012.1
20260906074533 72 25 2.0 5.0 0.00 0.00 0.00 89 1017.8
20260906074005 72 5 2.0 5.0 0.00 0.00 0.00 89 1017.8
20260906073508 72 31 2.0 5.0 0.00 0.00 0.00 89 1017.9
20260906073050 79 119 0.0 1.0 0.00 0.00 0.00 57 1012.3
20260906073012 72 78 0.0 4.0 0.00 0.00 0.00 89 1017.8
20260906072509 72 28 1.0 5.0 0.00 0.00 0.00 89 1017.8
20260906072008 72 360 0.0 7.0 0.00 0.00 0.00 89 1017.8
20260906071545 80 119 0.0 2.0 0.00 0.00 0.00 56 1012.3
20260906071516 72 41 1.0 7.0 0.00 0.00 0.00 89 1017.7
20260906071010 72 26 2.0 5.0 0.00 0.00 0.00 89 1017.6
20260906070511 72 23 2.0 5.0 0.00 0.00 0.00 89 1017.6
20260906070042 80 119 0.0 3.0 0.00 0.00 0.00 56 1012.4
20260906070004 73 5 0.0 4.0 0.00 0.00 0.00 90 1017.7
20260906065503 73 49 1.0 7.0 0.00 0.00 0.00 90 1017.6
20260906065004 73 27 3.0 7.0 0.00 0.00 0.00 90 1017.6
20260906064537 81 119 0.0 1.0 0.00 0.00 0.00 55 1012.4
20260906064507 73 24 2.0 9.0 0.00 0.00 0.00 90 1017.7
20260906064003 73 13 2.0 9.0 0.00 0.00 0.00 90 1017.6
20260906063508 73 9 1.0 5.0 0.00 0.00 0.00 91 1017.7
20260906063035 81 119 0.0 1.0 0.00 0.00 0.00 54 1012.6
20260906063009 73 28 1.0 5.0 0.00 0.00 0.00 91 1017.7
20260906062504 73 42 1.0 5.0 0.00 0.00 0.00 91 1017.7
20260906062009 73 32 2.0 7.0 0.00 0.00 0.00 91 1017.7
20260906061531 82 119 0.0 3.0 0.00 0.00 0.00 54 1012.7
20260906061524 73 33 2.0 7.0 0.00 0.00 0.00 91 1017.8
20260906061008 73 360 1.0 7.0 0.00 0.00 0.00 91 1017.6
20260906060510 73 5 3.0 7.0 0.00 0.00 0.00 91 1017.6
20260906060030 82 143 0.0 1.0 0.00 0.00 0.00 53 1012.7
20260906060021 73 30 2.0 4.0 0.00 0.00 0.00 91 1017.6
20260906055513 73 39 1.0 6.0 0.00 0.00 0.00 91 1017.6
20260906055014 73 5 2.0 8.0 0.00 0.00 0.00 91 1017.6
20260906054525 83 143 0.0 1.0 0.00 0.00 0.00 52 1012.6
20260906054514 72 341 2.0 9.0 0.00 0.00 0.00 92 1017.6
20260906054003 72 19 3.0 9.0 0.00 0.00 0.00 92 1017.5
20260906053507 72 13 3.0 9.0 0.00 0.00 0.00 92 1017.5
20260906053021 83 127 1.0 5.0 0.00 0.00 0.00 52 1012.7
20260906053006 72 15 2.0 7.0 0.00 0.00 0.00 92 1017.4
20260906052504 72 36 2.0 7.0 0.00 0.00 0.00 93 1017.3
20260906052005 72 352 2.0 5.0 0.00 0.00 0.00 93 1017.2
20260906051516 83 139 0.0 3.0 0.00 0.00 0.00 51 1012.5
20260906051512 72 19 2.0 5.0 0.00 0.00 0.00 93 1017.2
20260906051011 72 15 2.0 5.0 0.00 0.00 0.00 93 1017.1
20260906050514 72 16 2.0 6.0 0.00 0.00 0.00 93 1017.0
20260906050019 72 9 3.0 6.0 0.00 0.00 0.00 93 1016.9
20260906050010 84 132 0.0 3.0 0.00 0.00 0.00 50 1012.6
20260906045509 72 347 2.0 7.0 0.00 0.00 0.00 92 1016.8
20260906045013 72 5 2.0 9.0 0.00 0.00 0.00 92 1016.7
20260906044527 72 13 4.0 9.0 0.00 0.00 0.00 92 1016.7
20260906044509 84 146 0.0 3.0 0.00 0.00 0.00 49 1012.4
20260906044014 72 18 3.0 7.0 0.00 0.00 0.00 92 1016.7
20260906043503 71 46 3.0 7.0 0.00 0.00 0.00 92 1016.7
20260906043018 71 14 2.0 9.0 0.00 0.00 0.00 92 1016.7
20260906043006 85 120 0.0 4.0 0.00 0.00 0.00 49 1012.3
20260906042504 71 360 3.0 9.0 0.00 0.00 0.00 92 1016.7
20260906042004 71 17 2.0 10.0 0.00 0.00 0.00 91 1016.6
20260906041510 72 5 3.0 10.0 0.00 0.00 0.00 91 1016.5
20260906041506 85 108 4.0 7.0 0.00 0.00 0.00 48 1012.4
20260906041003 72 34 2.0 9.0 0.00 0.00 0.00 91 1016.4
20260906040507 72 40 3.0 9.0 0.00 0.00 0.00 91 1016.5
20260906040016 72 16 2.0 7.0 0.00 0.00 0.00 90 1016.6
20260906040003 85 101 3.0 7.0 0.00 0.00 0.00 47 1012.3
20260906035509 72 49 2.0 7.0 0.00 0.00 0.00 90 1016.6
20260906035011 72 9 3.0 6.0 0.00 0.00 0.00 90 1016.5
20260906034600 86 117 5.0 10.0 0.00 0.00 0.00 46 1012.3
20260906034523 72 56 2.0 5.0 0.00 0.00 0.00 89 1016.5
20260906034010 72 13 3.0 5.0 0.00 0.00 0.00 89 1016.5
20260906033512 72 31 2.0 5.0 0.00 0.00 0.00 89 1016.5
20260906033108 87 110 8.0 11.0 0.00 0.00 0.00 45 1012.4
20260906033027 72 30 2.0 8.0 0.00 0.00 0.00 89 1016.5
20260906032515 72 26 2.0 8.0 0.00 0.00 0.00 88 1016.5
20260906032004 72 55 3.0 8.0 0.00 0.00 0.00 88 1016.5
20260906031559 87 98 7.0 11.0 0.00 0.00 0.00 45 1012.3
20260906031509 72 40 3.0 8.0 0.00 0.00 0.00 88 1016.4
20260906031004 72 9 2.0 8.0 0.00 0.00 0.00 88 1016.4
20260906030507 72 55 1.0 10.0 0.00 0.00 0.00 88 1016.4
20260906030054 88 120 7.0 10.0 0.00 0.00 0.00 44 1012.1
20260906030013 72 5 2.0 10.0 0.00 0.00 0.00 88 1016.5
20260906025511 72 30 3.0 10.0 0.00 0.00 0.00 87 1016.6
20260906025009 72 24 4.0 10.0 0.00 0.00 0.00 87 1016.7
20260906024601 88 137 6.0 11.0 0.00 0.00 0.00 44 1011.9
20260906024519 72 29 4.0 9.0 0.00 0.00 0.00 87 1016.8
20260906024010 72 50 3.0 9.0 0.00 0.00 0.00 87 1016.8
20260906023512 72 33 5.0 9.0 0.00 0.00 0.00 87 1016.8
20260906023050 88 116 5.0 11.0 0.00 0.00 0.00 43 1011.7
20260906023027 72 40 3.0 10.0 0.00 0.00 0.00 87 1016.8
20260906022514 72 9 2.0 10.0 0.00 0.00 0.00 87 1016.7
20260906022012 72 51 5.0 13.0 0.00 0.00 0.00 87 1016.7
20260906021552 89 102 4.0 10.0 0.00 0.00 0.00 42 1011.7
20260906021539 72 360 6.0 13.0 0.00 0.00 0.00 86 1016.7
20260906021003 73 26 4.0 12.0 0.00 0.00 0.00 86 1016.8
20260906020506 73 44 3.0 11.0 0.00 0.00 0.00 86 1016.8
20260906020052 89 126 8.0 13.0 0.00 0.00 0.00 41 1011.5
20260906020011 73 5 3.0 12.0 0.00 0.00 0.00 85 1016.7
20260906015507 73 339 3.0 12.0 0.00 0.00 0.00 85 1016.7
20260906015009 73 29 3.0 10.0 0.00 0.00 0.00 85 1016.7
20260906014554 90 102 9.0 13.0 0.00 0.00 0.00 40 1011.2
20260906014520 73 32 3.0 9.0 0.00 0.00 0.00 85 1016.7
20260906014009 73 5 3.0 10.0 0.00 0.00 0.00 84 1016.7
20260906013508 73 34 5.0 10.0 0.00 0.00 0.00 84 1016.7
20260906013041 90 113 9.0 14.0 0.00 0.00 0.00 39 1010.9
20260906013034 73 5 6.0 10.0 0.00 0.00 0.00 84 1016.6
20260906012514 73 22 4.0 10.0 0.00 0.00 0.00 84 1016.6
20260906012013 74 71 3.0 12.0 0.00 0.00 0.00 84 1016.6
20260906011538 91 127 8.0 16.0 0.00 0.00 0.00 38 1010.7
20260906011533 74 19 5.0 12.0 0.00 0.00 0.00 84 1016.5
20260906011016 74 17 2.0 11.0 0.00 0.00 0.00 84 1016.3
20260906010514 74 59 5.0 12.0 0.00 0.00 0.00 84 1016.4
20260906010037 91 111 9.0 16.0 0.00 0.00 0.00 37 1010.6
20260906010008 74 55 2.0 12.0 0.00 0.00 0.00 84 1016.3
20260906005504 74 322 6.0 11.0 0.00 0.00 0.00 85 1016.1
20260906005004 74 9 4.0 11.0 0.00 0.00 0.00 85 1016.0
20260906004532 92 112 11.0 19.0 0.00 0.00 0.00 35 1010.6
20260906004515 74 40 4.0 9.0 0.00 0.00 0.00 85 1015.9
20260906004006 74 35 2.0 11.0 0.00 0.00 0.00 85 1015.9
20260906003510 74 17 3.0 12.0 0.00 0.00 0.00 85 1015.7
20260906003031 94 109 11.0 17.0 0.00 0.00 0.00 32 1010.4
20260906003022 74 27 3.0 14.0 0.00 0.00 0.00 85 1015.7
20260906002511 74 32 3.0 14.0 0.00 0.00 0.00 85 1015.6
20260906002013 75 17 4.0 11.0 0.00 0.00 0.00 85 1015.5
20260906001528 96 95 5.0 9.0 0.00 0.00 0.00 27 1010.2
20260906001525 75 13 4.0 11.0 0.00 0.00 0.00 84 1015.6
20260906001015 75 11 3.0 11.0 0.00 0.00 0.00 84 1015.7
20260906000514 75 20 6.0 11.0 0.00 0.00 0.00 83 1015.8
20260906000126 96 101 4.0 8.0 0.00 0.00 0.00 27 1010.1
20260906000030 76 352 5.0 11.0 0.00 0.00 0.00 83 1015.7
20260905235516 76 15 4.0 11.0 0.00 0.00 0.00 83 1015.6
20260905235016 76 22 4.0 11.0 0.00 0.00 0.00 83 1015.7
20260905234523 97 105 5.0 9.0 0.00 0.00 0.00 26 1010.0
20260905234512 76 14 4.0 13.0 0.00 0.00 0.00 82 1015.7
20260905234004 76 21 4.0 13.0 0.00 0.00 0.00 82 1015.7
20260905233506 77 352 4.0 13.0 0.00 0.00 0.00 81 1015.7
20260905233033 97 86 4.0 9.0 0.00 0.00 0.00 26 1010.1
20260905233019 77 27 3.0 12.0 0.00 0.00 0.00 81 1015.7
20260905232507 77 352 5.0 12.0 0.00 0.00 0.00 81 1015.5
20260905232011 77 28 4.0 13.0 0.00 0.00 0.00 80 1015.5
20260905231524 78 24 3.0 13.0 0.00 0.00 0.00 79 1015.3
20260905231519 96 87 5.0 9.0 0.00 0.00 0.00 27 1010.2
20260905231011 78 17 5.0 13.0 0.00 0.00 0.00 78 1015.3
20260905230514 78 49 4.0 13.0 0.00 0.00 0.00 78 1015.3
20260905230027 79 41 5.0 13.0 0.00 0.00 0.00 77 1015.3
20260905230015 96 101 3.0 10.0 0.00 0.00 0.00 27 1010.1
20260905225514 79 11 3.0 10.0 0.00 0.00 0.00 77 1015.2
20260905225015 79 82 4.0 12.0 0.00 0.00 0.00 77 1015.2
20260905224532 79 24 5.0 12.0 0.00 0.00 0.00 77 1015.1
20260905224516 97 80 4.0 11.0 0.00 0.00 0.00 27 1010.1
20260905224005 79 47 3.0 13.0 0.00 0.00 0.00 78 1015.0
20260905223510 79 5 5.0 16.0 0.00 0.00 0.00 78 1015.0
20260905223014 79 5 6.0 16.0 0.00 0.00 0.00 77 1014.9
20260905223011 96 104 6.0 15.0 0.00 0.00 0.00 27 1010.0
20260905222510 80 26 5.0 15.0 0.00 0.00 0.00 76 1015.0
20260905222007 80 10 6.0 15.0 0.00 0.00 0.00 76 1015.0
20260905221520 80 72 4.0 12.0 0.00 0.00 0.00 76 1015.0
20260905221513 98 105 6.0 13.0 0.00 0.00 0.00 26 1009.9
20260905221012 80 30 5.0 12.0 0.00 0.00 0.00 76 1015.0
20260905220510 80 347 3.0 13.0 0.00 0.00 0.00 76 1015.0
20260905220111 99 121 2.0 7.0 0.00 0.00 0.00 26 1009.9
20260905220024 81 20 7.0 13.0 0.00 0.00 0.00 76 1015.0
20260905215512 81 315 4.0 11.0 0.00 0.00 0.00 76 1014.9
20260905215003 81 22 5.0 11.0 0.00 0.00 0.00 75 1014.8
20260905214507 82 15 6.0 11.0 0.00 0.00 0.00 74 1014.7
20260905214505 97 122 1.0 10.0 0.00 0.00 0.00 27 1010.2
20260905214004 82 5 4.0 11.0 0.00 0.00 0.00 74 1014.7
20260905213504 82 26 6.0 11.0 0.00 0.00 0.00 74 1014.7
20260905213011 82 13 4.0 11.0 0.00 0.00 0.00 74 1014.7
20260905213003 97 65 2.0 9.0 0.00 0.00 0.00 27 1010.2
20260905212503 82 21 3.0 13.0 0.00 0.00 0.00 74 1014.7
20260905212007 82 60 6.0 15.0 0.00 0.00 0.00 72 1014.6
20260905211603 97 131 3.0 10.0 0.00 0.00 0.00 26 1010.5
20260905211515 83 11 4.0 15.0 0.00 0.00 0.00 71 1014.6
20260905211008 83 360 3.0 12.0 0.00 0.00 0.00 71 1014.5
20260905210512 84 27 6.0 12.0 0.00 0.00 0.00 70 1014.5
20260905210057 97 83 5.0 13.0 0.00 0.00 0.00 26 1010.7
20260905210025 84 32 3.0 12.0 0.00 0.00 0.00 71 1014.5
20260905205512 84 18 4.0 10.0 0.00 0.00 0.00 69 1014.6
20260905205012 85 360 5.0 9.0 0.00 0.00 0.00 69 1014.6
20260905204551 96 98 8.0 13.0 0.00 0.00 0.00 28 1010.8
20260905204527 85 34 3.0 9.0 0.00 0.00 0.00 69 1014.6
20260905204003 85 11 4.0 14.0 0.00 0.00 0.00 70 1014.6
20260905203503 85 5 2.0 14.0 0.00 0.00 0.00 71 1014.6
20260905203055 97 112 0.0 10.0 0.00 0.00 0.00 27 1011.1
20260905203011 85 352 4.0 10.0 0.00 0.00 0.00 71 1014.6
20260905202503 84 5 2.0 11.0 0.00 0.00 0.00 72 1014.7
20260905202003 84 29 4.0 12.0 0.00 0.00 0.00 71 1014.6
20260905201547 99 96 5.0 11.0 0.00 0.00 0.00 25 1011.1
20260905201518 84 37 2.0 12.0 0.00 0.00 0.00 72 1014.7
20260905201007 84 74 2.0 12.0 0.00 0.00 0.00 70 1014.7
20260905200510 85 5 4.0 12.0 0.00 0.00 0.00 69 1014.7
20260905200042 99 189 0.0 4.0 0.00 0.00 0.00 27 1011.5
20260905200032 85 360 3.0 11.0 0.00 0.00 0.00 70 1014.8
20260905195512 85 33 4.0 12.0 0.00 0.00 0.00 70 1014.6
20260905195011 86 13 6.0 12.0 0.00 0.00 0.00 68 1014.6
20260905194540 98 56 1.0 7.0 0.00 0.00 0.00 25 1011.7
20260905194524 86 52 5.0 13.0 0.00 0.00 0.00 68 1014.6
20260905194014 86 9 4.0 13.0 0.00 0.00 0.00 68 1014.5
20260905193521 87 24 4.0 12.0 0.00 0.00 0.00 69 1014.6
20260905193051 98 41 1.0 12.0 0.00 0.00 0.00 26 1011.8
20260905193008 87 17 3.0 12.0 0.00 0.00 0.00 69 1014.6
20260905192503 87 22 3.0 12.0 0.00 0.00 0.00 68 1014.6
20260905192003 88 59 4.0 11.0 0.00 0.00 0.00 67 1014.7
20260905191534 98 228 0.0 4.0 0.00 0.00 0.00 27 1012.1
20260905191512 88 5 5.0 12.0 0.00 0.00 0.00 67 1014.7
20260905191008 88 74 4.0 12.0 0.00 0.00 0.00 66 1014.9
20260905190510 89 52 2.0 8.0 0.00 0.00 0.00 68 1014.9
20260905190031 100 266 0.0 6.0 0.00 0.00 0.00 24 1012.4
20260905190024 88 28 2.0 8.0 0.00 0.00 0.00 69 1014.9
20260905185509 88 19 4.0 8.0 0.00 0.00 0.00 68 1015.0
20260905185012 88 338 2.0 8.0 0.00 0.00 0.00 68 1014.9
20260905184528 88 5 1.0 11.0 0.00 0.00 0.00 68 1014.9
20260905184011 88 301 3.0 11.0 0.00 0.00 0.00 69 1014.9
20260905183513 88 324 2.0 11.0 0.00 0.00 0.00 68 1015.0
20260905183026 89 32 3.0 10.0 0.00 0.00 0.00 70 1014.9
20260905183024 96 89 3.0 8.0 0.00 0.00 0.00 28 1013.2
20260905182514 88 110 1.0 11.0 0.00 0.00 0.00 71 1014.9
20260905182016 88 293 5.0 11.0 0.00 0.00 0.00 70 1014.9
20260905181524 97 114 6.0 12.0 0.00 0.00 0.00 29 1013.3
20260905181510 88 246 1.0 9.0 0.00 0.00 0.00 71 1014.9
20260905181006 88 313 3.0 10.0 0.00 0.00 0.00 71 1014.7
20260905180504 87 5 2.0 10.0 0.00 0.00 0.00 73 1014.9
20260905180020 97 215 0.0 2.0 0.00 0.00 0.00 29 1013.5
20260905180016 88 5 4.0 10.0 0.00 0.00 0.00 71 1014.7
20260905175509 87 37 1.0 8.0 0.00 0.00 0.00 74 1014.8
20260905175012 87 25 4.0 10.0 0.00 0.00 0.00 71 1014.9
20260905174525 88 16 2.0 10.0 0.00 0.00 0.00 71 1014.8
20260905174518 97 12 0.0 8.0 0.00 0.00 0.00 27 1013.7
20260905174013 88 340 4.0 10.0 0.00 0.00 0.00 70 1014.8
20260905173512 88 51 3.0 10.0 0.00 0.00 0.00 72 1014.9
20260905173025 88 39 2.0 10.0 0.00 0.00 0.00 72 1014.9
20260905173015 97 133 0.0 5.0 0.00 0.00 0.00 29 1013.8
20260905172514 88 332 2.0 8.0 0.00 0.00 0.00 72 1014.9
20260905172016 87 49 3.0 7.0 0.00 0.00 0.00 72 1014.9
20260905171539 87 53 2.0 8.0 0.00 0.00 0.00 74 1015.0
20260905171523 96 92 0.0 9.0 0.00 0.00 0.00 29 1014.0
20260905171016 87 70 3.0 9.0 0.00 0.00 0.00 75 1015.1
20260905170506 86 15 3.0 10.0 0.00 0.00 0.00 74 1015.0
20260905170012 87 28 3.0 10.0 0.00 0.00 0.00 75 1015.0
20260905165503 87 36 3.0 9.0 0.00 0.00 0.00 73 1015.1
20260905165009 87 350 4.0 8.0 0.00 0.00 0.00 75 1015.1
20260905164519 87 46 3.0 9.0 0.00 0.00 0.00 76 1015.2
20260905164517 97 210 0.0 5.0 0.00 0.00 0.00 30 1014.1
20260905164009 86 32 2.0 11.0 0.00 0.00 0.00 76 1015.2
20260905163510 87 352 4.0 11.0 0.00 0.00 0.00 74 1015.2
20260905163026 87 345 4.0 10.0 0.00 0.00 0.00 75 1015.2
20260905163007 98 214 0.0 2.0 0.00 0.00 0.00 31 1014.2
20260905162514 87 75 2.0 8.0 0.00 0.00 0.00 75 1015.1
20260905162014 87 12 3.0 8.0 0.00 0.00 0.00 74 1015.2
20260905161530 87 76 2.0 10.0 0.00 0.00 0.00 75 1015.2
20260905161501 97 225 0.0 2.0 0.00 0.00 0.00 32 1014.2
20260905161016 87 33 4.0 10.0 0.00 0.00 0.00 76 1015.1
20260905160515 87 14 3.0 10.0 0.00 0.00 0.00 75 1015.0
20260905160057 95 136 0.0 1.0 0.00 0.00 0.00 34 1014.3
20260905160033 87 33 2.0 11.0 0.00 0.00 0.00 76 1015.0
20260905155519 87 63 4.0 11.0 0.00 0.00 0.00 76 1015.0
20260905155003 87 57 2.0 6.0 0.00 0.00 0.00 77 1015.0
20260905154603 95 226 0.0 2.0 0.00 0.00 0.00 35 1014.3
20260905154514 87 342 1.0 6.0 0.00 0.00 0.00 77 1015.0
20260905154008 87 9 1.0 9.0 0.00 0.00 0.00 77 1015.0
20260905153509 87 53 2.0 9.0 0.00 0.00 0.00 77 1014.9
20260905153047 93 230 0.0 2.0 0.00 0.00 0.00 38 1014.3
20260905153030 87 11 3.0 7.0 0.00 0.00 0.00 76 1014.8
20260905152512 87 352 2.0 5.0 0.00 0.00 0.00 79 1014.7
20260905152012 87 350 2.0 9.0 0.00 0.00 0.00 78 1014.6
20260905151541 92 212 0.0 2.0 0.00 0.00 0.00 39 1014.3
20260905151528 87 42 3.0 9.0 0.00 0.00 0.00 77 1014.6
20260905151011 87 22 2.0 8.0 0.00 0.00 0.00 78 1014.6
20260905150516 86 13 2.0 5.0 0.00 0.00 0.00 79 1014.6
20260905150037 91 214 0.0 3.0 0.00 0.00 0.00 41 1014.2
20260905150030 86 131 1.0 5.0 0.00 0.00 0.00 79 1014.6
20260905145517 86 11 1.0 8.0 0.00 0.00 0.00 78 1014.7
20260905145016 86 22 1.0 8.0 0.00 0.00 0.00 79 1014.6
20260905144531 89 214 0.0 2.0 0.00 0.00 0.00 44 1014.2
20260905144010 86 325 0.0 3.0 0.00 0.00 0.00 81 1014.5
20260905143510 85 12 1.0 5.0 0.00 0.00 0.00 80 1014.5
20260905143025 88 201 0.0 0.0 0.00 0.00 0.00 50 1014.1
20260905143022 85 17 2.0 5.0 0.00 0.00 0.00 78 1014.4
20260905142510 85 21 2.0 4.0 0.00 0.00 0.00 79 1014.4
20260905142012 85 15 1.0 5.0 0.00 0.00 0.00 80 1014.4
20260905141526 85 9 2.0 5.0 0.00 0.00 0.00 82 1014.5
20260905141520 85 125 1.0 5.0 0.00 0.00 0.00 54 1014.1